FW9784 Weather Reports


Display with metric or nautical units.
time (UTC)temp
F
wind
direction
speed
MPH
gust
MPH
rain 1hr
in
rain 24hr
in
rain mn
in
humidity
%
barometer
mb
20260904215906 78 202 5.0 11.0 0.00 0.00 0.00 70 1012.8
20260904215407 78 0 4.0 11.0 0.00 0.00 0.00 70 1012.8
20260904214910 78 263 4.0 10.0 0.00 0.00 0.00 71 1012.8
20260904214409 78 0 4.0 11.0 0.00 0.00 0.00 71 1012.8
20260904213909 78 0 4.0 11.0 0.00 0.00 0.00 70 1012.8
20260904213408 78 0 4.0 9.0 0.00 0.00 0.00 71 1012.8
20260904212906 77 0 5.0 9.0 0.00 0.00 0.00 71 1012.9
20260904212406 78 220 4.0 9.0 0.00 0.00 0.00 71 1012.9
20260904211915 78 0 4.0 9.0 0.00 0.00 0.00 71 1012.9
20260904211408 78 0 5.0 10.0 0.00 0.00 0.00 71 1012.9
20260904210907 78 0 5.0 10.0 0.00 0.00 0.00 70 1012.9
20260904210659 77 0 4.0 10.0 0.00 0.00 0.00 71 1012.8
20260904210500 77 0 4.0 10.0 0.00 0.00 0.00 71 1012.8
20260904210309 78 0 4.0 12.0 0.00 0.00 0.00 70 1012.9
20260904205404 78 200 4.0 12.0 0.00 0.00 0.00 70 1013.0
20260904204924 77 167 4.0 9.0 0.00 0.00 0.00 71 1012.9
20260904204911 78 254 4.0 9.0 0.00 0.00 0.00 70 1012.9
20260904203905 77 0 4.0 11.0 0.00 0.00 0.00 71 1012.9
20260904203404 77 0 4.0 11.0 0.00 0.00 0.00 70 1013.0
20260904202908 77 0 5.0 11.0 0.00 0.00 0.00 70 1012.9
20260904202405 77 0 5.0 13.0 0.00 0.00 0.00 71 1013.0
20260904202353 78 0 5.0 13.0 0.00 0.00 0.00 70 1013.2
20260904201406 78 0 5.0 10.0 0.00 0.00 0.00 70 1013.3
20260904200903 78 195 4.0 9.0 0.00 0.00 0.00 72 1013.2
20260904200402 78 0 4.0 9.0 0.00 0.00 0.00 72 1013.3
20260904195905 78 0 4.0 11.0 0.00 0.00 0.00 72 1013.3
20260904195428 77 0 4.0 11.0 0.00 0.00 0.00 72 1013.3
20260904195351 77 273 4.0 10.0 0.00 0.00 0.00 72 1013.4
20260904194413 77 259 5.0 10.0 0.00 0.00 0.00 72 1013.3
20260904193916 77 0 4.0 10.0 0.00 0.00 0.00 71 1013.5
20260904193434 77 0 4.0 9.0 0.00 0.00 0.00 71 1013.4
20260904193145 77 196 4.0 9.0 0.00 0.00 0.00 71 1013.6
20260904192921 77 196 4.0 9.0 0.00 0.00 0.00 71 1013.6
20260904192440 77 198 4.0 9.0 0.00 0.00 0.00 70 1013.7
20260904192217 77 278 3.0 8.0 0.00 0.00 0.00 70 1013.6
20260904191432 77 322 4.0 10.0 0.00 0.00 0.00 70 1013.7
20260904190930 77 0 4.0 10.0 0.00 0.00 0.00 70 1013.8
20260904190413 77 190 3.0 10.0 0.00 0.00 0.00 69 1013.8
20260904185920 77 198 3.0 7.0 0.00 0.00 0.00 70 1013.8
20260904185759 77 263 3.0 9.0 0.00 0.00 0.00 69 1013.9
20260904185524 77 299 4.0 8.0 0.00 0.00 0.00 69 1013.9
20260904184930 77 252 3.0 8.0 0.00 0.00 0.00 69 1013.9
20260904184830 78 231 3.0 9.0 0.00 0.00 0.00 69 1013.9
20260904184545 77 0 3.0 9.0 0.00 0.00 0.00 69 1013.9
20260904183208 78 233 3.0 9.0 0.00 0.00 0.00 68 1013.9
20260904182915 78 233 3.0 9.0 0.00 0.00 0.00 68 1013.9
20260904182427 78 0 3.0 9.0 0.00 0.00 0.00 67 1013.9
20260904181911 78 269 2.0 7.0 0.00 0.00 0.00 65 1014.0
20260904181402 77 160 2.0 7.0 0.00 0.00 0.00 66 1014.0
20260904181056 76 88 2.0 8.0 0.00 0.00 0.00 69 1013.9
20260904181036 77 152 2.0 6.0 0.00 0.00 0.00 69 1013.9
20260904181031 77 226 1.0 6.0 0.00 0.00 0.00 68 1013.9
20260904180958 78 177 2.0 6.0 0.00 0.00 0.00 66 1014.1
20260904180919 78 336 3.0 7.0 0.00 0.00 0.00 66 1014.0
20260904180421 78 261 2.0 7.0 0.00 0.00 0.00 66 1014.0
20260904180101 78 207 1.0 5.0 0.00 0.00 0.00 66 1014.1
20260904175029 78 0 2.0 6.0 0.00 0.00 0.00 66 1014.1
20260904174522 78 166 2.0 4.0 0.00 0.00 0.00 65 1014.0
20260904174245 78 121 2.0 6.0 0.00 0.00 0.00 68 1014.0
20260904172441 76 34 3.0 8.0 0.00 0.00 0.00 68 1014.0
20260904171427 76 302 2.0 4.0 0.00 0.00 0.00 69 1013.9
20260904170914 76 79 1.0 4.0 0.00 0.00 0.00 69 1013.9
20260904170436 76 215 1.0 4.0 0.00 0.00 0.00 69 1013.8
20260904165903 75 63 1.0 3.0 0.00 0.00 0.00 72 1013.7
20260904165423 74 110 1.0 4.0 0.00 0.00 0.00 72 1013.7
20260904165405 75 18 1.0 3.0 0.00 0.00 0.00 72 1013.7
20260904164456 73 111 2.0 4.0 0.00 0.00 0.00 76 1013.6
20260904164423 74 110 2.0 4.0 0.00 0.00 0.00 73 1013.6
20260904163410 73 135 1.0 4.0 0.00 0.00 0.00 76 1013.5
20260904162905 73 114 1.0 3.0 0.00 0.00 0.00 77 1013.5
20260904162403 72 108 1.0 3.0 0.00 0.00 0.00 78 1013.5
20260904161905 71 191 1.0 3.0 0.00 0.00 0.00 79 1013.4
20260904161408 71 191 1.0 4.0 0.00 0.00 0.00 80 1013.4
20260904161213 71 173 1.0 4.0 0.00 0.00 0.00 80 1013.4
20260904161049 71 107 1.0 4.0 0.00 0.00 0.00 80 1013.3
20260904160952 71 173 1.0 4.0 0.00 0.00 0.00 80 1013.4
20260904160011 71 115 1.0 4.0 0.00 0.00 0.00 81 1013.4
20260904155449 71 69 2.0 6.0 0.00 0.00 0.00 81 1013.3
20260904155425 71 117 2.0 4.0 0.00 0.00 0.00 82 1013.3
20260904154400 71 114 2.0 6.0 0.00 0.00 0.00 81 1013.3
20260904153906 71 114 2.0 4.0 0.00 0.00 0.00 81 1013.4
20260904153402 71 73 2.0 4.0 0.00 0.00 0.00 82 1013.4
20260904152902 71 128 2.0 6.0 0.00 0.00 0.00 83 1013.3
20260904152633 70 115 2.0 7.0 0.00 0.00 0.00 83 1013.3
20260904152400 70 63 1.0 7.0 0.00 0.00 0.00 83 1013.4
20260904151402 70 146 1.0 6.0 0.00 0.00 0.00 84 1013.3
20260904150853 70 103 1.0 4.0 0.00 0.00 0.00 86 1013.2
20260904150621 66 73 1.0 3.0 0.00 0.00 0.00 90 1012.9
20260904150552 69 109 2.0 6.0 0.00 0.00 0.00 86 1013.1
20260904150544 68 80 2.0 6.0 0.00 0.00 0.00 87 1013.1
20260904150428 69 100 2.0 6.0 0.00 0.00 0.00 85 1013.2
20260904145832 68 113 1.0 6.0 0.00 0.00 0.00 88 1013.0
20260904144452 67 113 1.0 3.0 0.00 0.00 0.00 89 1013.0
20260904143850 66 66 1.0 3.0 0.00 0.00 0.00 90 1012.8
20260904143844 67 113 1.0 3.0 0.00 0.00 0.00 90 1012.8
20260904143836 65 76 1.0 3.0 0.00 0.00 0.00 91 1012.7
20260904143558 66 73 1.0 3.0 0.00 0.00 0.00 90 1012.9
20260904141857 65 53 1.0 3.0 0.00 0.00 0.00 92 1012.7
20260904141351 65 0 1.0 2.0 0.00 0.00 0.00 92 1012.6
20260904140858 64 0 1.0 2.0 0.00 0.00 0.00 92 1012.7
20260904140346 64 0 1.0 2.0 0.00 0.00 0.00 92 1012.7
20260904140111 64 0 1.0 2.0 0.00 0.00 0.00 92 1012.6
20260904135859 64 0 1.0 2.0 0.00 0.00 0.00 92 1012.7
20260904135526 63 0 0.0 0.0 0.00 0.00 0.00 92 1012.5
20260904135414 64 0 1.0 2.0 0.00 0.00 0.00 92 1012.6
20260904135040 64 0 0.0 2.0 0.00 0.00 0.00 92 1012.6
20260904133858 63 0 0.0 0.0 0.00 0.00 0.00 92 1012.5
20260904133347 63 0 0.0 0.0 0.00 0.00 0.00 92 1012.5
20260904132853 64 0 0.0 0.0 0.00 0.00 0.00 92 1012.4
20260904132717 63 0 0.0 0.0 0.00 0.00 0.00 93 1012.3
20260904132535 64 0 0.0 0.0 0.00 0.00 0.00 92 1012.4
20260904132435 64 0 0.0 0.0 0.00 0.00 0.00 92 1012.5
20260904132052 64 0 0.0 0.0 0.00 0.00 0.00 92 1012.5
20260904131159 64 0 0.0 0.0 0.00 0.00 0.00 92 1012.4
20260904130811 64 0 0.0 0.0 0.00 0.00 0.00 93 1012.5
20260904125520 63 0 0.0 0.0 0.00 0.00 0.00 92 1012.3
20260904125419 63 0 0.0 0.0 0.00 0.00 0.00 92 1012.4
20260904124346 63 0 0.0 0.0 0.00 0.00 0.00 92 1012.3
20260904124219 63 0 0.0 0.0 0.00 0.00 0.00 92 1012.2
20260904123728 63 0 0.0 0.0 0.00 0.00 0.00 92 1012.3
20260904123352 63 0 0.0 0.0 0.00 0.00 0.00 92 1012.3
20260904122855 63 0 0.0 0.0 0.00 0.00 0.00 92 1012.3
20260904122343 63 0 0.0 0.0 0.00 0.00 0.00 92 1012.2
20260904121854 63 0 0.0 0.0 0.00 0.00 0.00 92 1012.2
20260904121413 64 0 0.0 0.0 0.00 0.00 0.00 92 1012.3
20260904121343 63 0 0.0 0.0 0.00 0.00 0.00 91 1012.2
20260904121210 64 0 0.0 0.0 0.00 0.00 0.00 91 1012.3
20260904121158 64 0 0.0 1.0 0.00 0.00 0.00 92 1012.3
20260904121152 64 0 0.0 0.0 0.00 0.00 0.00 92 1012.3
20260904121141 64 0 0.0 0.0 0.00 0.00 0.00 92 1012.2
20260904120947 64 0 0.0 0.0 0.00 0.00 0.00 91 1012.3
20260904120856 64 0 0.0 0.0 0.00 0.00 0.00 91 1012.1
20260904120537 64 0 0.0 0.0 0.00 0.00 0.00 91 1012.1
20260904120250 64 0 0.0 0.0 0.00 0.00 0.00 91 1012.2
20260904120248 64 0 0.0 0.0 0.00 0.00 0.00 92 1012.3
20260904115914 64 0 0.0 0.0 0.00 0.00 0.00 91 1012.1
20260904114918 64 0 0.0 0.0 0.00 0.00 0.00 91 1012.2
20260904114503 64 0 0.0 0.0 0.00 0.00 0.00 91 1012.3
20260904113516 64 0 0.0 1.0 0.00 0.00 0.00 92 1012.4
20260904112329 64 0 0.0 0.0 0.00 0.00 0.00 92 1012.2
20260904112256 64 0 0.0 0.0 0.00 0.00 0.00 92 1012.3
20260904111931 64 0 0.0 0.0 0.00 0.00 0.00 92 1012.2
20260904110333 64 0 0.0 0.0 0.00 0.00 0.00 92 1012.2
20260904105319 64 0 0.0 0.0 0.00 0.00 0.00 91 1012.2
20260904104815 64 0 0.0 0.0 0.00 0.00 0.00 91 1012.3
20260904104317 64 0 0.0 0.0 0.00 0.00 0.00 91 1012.2
20260904104246 65 0 0.0 0.0 0.00 0.00 0.00 91 1012.2
20260904103850 64 0 0.0 0.0 0.00 0.00 0.00 91 1012.3
20260904102806 65 0 0.0 0.0 0.00 0.00 0.00 91 1012.1
20260904102414 65 0 0.0 0.0 0.00 0.00 0.00 91 1012.2
20260904101805 65 0 0.0 0.0 0.00 0.00 0.00 91 1012.1
20260904101305 65 0 0.0 1.0 0.00 0.00 0.00 91 1012.2
20260904100802 65 0 0.0 2.0 0.00 0.00 0.00 91 1012.2
20260904100557 64 0 0.0 0.0 0.00 0.00 0.00 91 1012.1
20260904100552 65 0 0.0 2.0 0.00 0.00 0.00 91 1012.1
20260904100420 65 0 0.0 2.0 0.00 0.00 0.00 91 1012.2
20260904100331 65 0 0.0 2.0 0.00 0.00 0.00 91 1012.2
20260904100003 65 0 0.0 1.0 0.00 0.00 0.00 91 1012.1
20260904095436 65 0 0.0 2.0 0.00 0.00 0.00 91 1012.1
20260904093331 64 0 0.0 0.0 0.00 0.00 0.00 91 1012.1
20260904092803 64 0 0.0 0.0 0.00 0.00 0.00 90 1012.1
20260904092306 64 0 0.0 0.0 0.00 0.00 0.00 90 1012.0
20260904091806 64 0 0.0 0.0 0.00 0.00 0.00 90 1012.1
20260904091345 64 0 0.0 0.0 0.00 0.00 0.00 90 1012.1
20260904091326 64 0 0.0 0.0 0.00 0.00 0.00 90 1012.1
20260904090314 64 0 0.0 0.0 0.00 0.00 0.00 90 1012.1
20260904085810 64 0 0.0 0.0 0.00 0.00 0.00 90 1012.1
20260904085306 64 0 0.0 0.0 0.00 0.00 0.00 90 1012.1
20260904084807 65 0 0.0 0.0 0.00 0.00 0.00 89 1012.2
20260904084303 65 0 0.0 0.0 0.00 0.00 0.00 90 1012.2
20260904083808 65 0 0.0 0.0 0.00 0.00 0.00 90 1012.2
20260904083307 65 0 0.0 0.0 0.00 0.00 0.00 89 1012.2
20260904082802 65 0 0.0 0.0 0.00 0.00 0.00 89 1012.3
20260904082306 65 0 0.0 0.0 0.00 0.00 0.00 89 1012.3
20260904082131 65 0 0.0 1.0 0.00 0.00 0.00 89 1012.4
20260904082115 65 0 0.0 0.0 0.00 0.00 0.00 89 1012.3
20260904081919 65 0 0.0 0.0 0.00 0.00 0.00 89 1012.3
20260904081341 65 0 0.0 0.0 0.00 0.00 0.00 89 1012.3
20260904075758 65 0 0.0 1.0 0.00 0.00 0.00 89 1012.4
20260904075257 65 0 0.0 1.0 0.00 0.00 0.00 89 1012.4
20260904074755 65 0 0.0 2.0 0.00 0.00 0.00 89 1012.4
20260904074744 65 0 0.0 2.0 0.00 0.00 0.00 89 1012.4
20260904073801 65 0 0.0 0.0 0.00 0.00 0.00 89 1012.4
20260904073257 65 0 0.0 0.0 0.00 0.00 0.00 89 1012.4
20260904072822 65 0 0.0 0.0 0.00 0.00 0.00 89 1012.4
20260904072502 65 0 0.0 0.0 0.00 0.00 0.00 88 1012.3
20260904072330 65 0 0.0 0.0 0.00 0.00 0.00 88 1012.3
20260904071248 66 0 0.0 0.0 0.00 0.00 0.00 88 1012.4
20260904070800 66 0 0.0 0.0 0.00 0.00 0.00 88 1012.3
20260904070445 66 0 0.0 0.0 0.00 0.00 0.00 88 1012.4
20260904070301 66 0 0.0 0.0 0.00 0.00 0.00 88 1012.3
20260904065238 66 0 0.0 0.0 0.00 0.00 0.00 88 1012.3
20260904064755 66 0 0.0 0.0 0.00 0.00 0.00 88 1012.3
20260904064237 66 0 0.0 0.0 0.00 0.00 0.00 87 1012.3
20260904063754 66 0 0.0 0.0 0.00 0.00 0.00 87 1012.2
20260904063234 67 0 0.0 0.0 0.00 0.00 0.00 87 1012.2
20260904062744 67 0 0.0 0.0 0.00 0.00 0.00 87 1012.2
20260904062230 67 0 0.0 0.0 0.00 0.00 0.00 86 1012.2
20260904061743 67 0 0.0 0.0 0.00 0.00 0.00 86 1012.1
20260904061229 67 0 0.0 0.0 0.00 0.00 0.00 86 1012.1
20260904060833 67 0 0.0 0.0 0.00 0.00 0.00 85 1012.0
20260904060741 67 0 0.0 0.0 0.00 0.00 0.00 86 1012.1
20260904055730 68 0 0.0 0.0 0.00 0.00 0.00 85 1012.0
20260904055657 68 0 0.0 2.0 0.00 0.00 0.00 85 1012.0
20260904054954 68 0 0.0 4.0 0.00 0.00 0.00 85 1012.1
20260904054812 68 0 0.0 2.0 0.00 0.00 0.00 85 1012.0
20260904054449 68 0 0.0 0.0 0.00 0.00 0.00 85 1012.0
20260904053910 68 0 0.0 4.0 0.00 0.00 0.00 85 1012.1
20260904052745 68 214 1.0 2.0 0.00 0.00 0.00 85 1012.2
20260904052247 68 214 1.0 4.0 0.00 0.00 0.00 85 1012.1
20260904051804 68 214 2.0 5.0 0.00 0.00 0.00 85 1012.2
20260904051240 68 255 2.0 5.0 0.00 0.00 0.00 85 1012.3
20260904050811 68 0 1.0 4.0 0.00 0.00 0.00 84 1012.2
20260904050238 68 0 1.0 3.0 0.00 0.00 0.00 84 1012.2
20260904045811 68 0 1.0 4.0 0.00 0.00 0.00 84 1012.2
20260904045243 68 0 1.0 4.0 0.00 0.00 0.00 84 1012.2
20260904044859 68 255 1.0 3.0 0.00 0.00 0.00 85 1012.2
20260904044240 68 0 1.0 3.0 0.00 0.00 0.00 85 1012.0
20260904044230 68 263 1.0 4.0 0.00 0.00 0.00 85 1012.1
20260904043821 68 0 1.0 4.0 0.00 0.00 0.00 85 1012.1
20260904042743 68 0 1.0 3.0 0.00 0.00 0.00 85 1012.0
20260904042605 68 209 1.0 3.0 0.00 0.00 0.00 85 1012.1
20260904042557 68 223 1.0 5.0 0.00 0.00 0.00 85 1012.0
20260904041224 68 223 1.0 5.0 0.00 0.00 0.00 85 1012.1
20260904040729 68 227 2.0 3.0 0.00 0.00 0.00 85 1012.0
20260904040217 68 234 2.0 6.0 0.00 0.00 0.00 85 1012.0
20260904035802 69 298 2.0 6.0 0.00 0.00 0.00 85 1011.9
20260904035558 69 279 2.0 5.0 0.00 0.00 0.00 86 1011.8
20260904035326 69 0 2.0 6.0 0.00 0.00 0.00 85 1011.9
20260904034211 69 0 2.0 5.0 0.00 0.00 0.00 86 1011.8
20260904033722 69 224 2.0 5.0 0.00 0.00 0.00 86 1011.6
20260904033218 69 219 2.0 5.0 0.00 0.00 0.00 85 1011.7
20260904032824 69 253 2.0 6.0 0.00 0.00 0.00 85 1011.6
20260904032800 69 0 2.0 5.0 0.00 0.00 0.00 85 1011.7
20260904032334 69 0 2.0 6.0 0.00 0.00 0.00 85 1011.6
20260904031544 69 0 2.0 4.0 0.00 0.00 0.00 85 1011.5
20260904031211 69 0 2.0 4.0 0.00 0.00 0.00 85 1011.5
20260904030743 69 222 2.0 8.0 0.00 0.00 0.00 85 1011.5
20260904030218 69 252 2.0 8.0 0.00 0.00 0.00 85 1011.5
20260904025717 69 271 2.0 5.0 0.00 0.00 0.00 85 1011.3
20260904025521 69 261 2.0 8.0 0.00 0.00 0.00 84 1011.4
20260904025506 69 280 3.0 8.0 0.00 0.00 0.00 84 1011.4
20260904025427 70 276 3.0 8.0 0.00 0.00 0.00 84 1011.4
20260904025423 70 0 3.0 8.0 0.00 0.00 0.00 84 1011.3
20260904025248 69 0 2.0 5.0 0.00 0.00 0.00 85 1011.4
20260904025000 69 273 2.0 8.0 0.00 0.00 0.00 85 1011.4
20260904022212 70 198 2.0 8.0 0.00 0.00 0.00 83 1011.3
20260904021706 70 271 2.0 6.0 0.00 0.00 0.00 83 1011.3
20260904021532 71 0 2.0 6.0 0.00 0.00 0.00 82 1011.2
20260904021308 71 270 2.0 6.0 0.00 0.00 0.00 83 1011.3
20260904020213 71 202 2.0 6.0 0.00 0.00 0.00 82 1011.3
20260904015707 71 225 2.0 7.0 0.00 0.00 0.00 82 1011.3
20260904015213 71 269 2.0 7.0 0.00 0.00 0.00 81 1011.4
20260904014712 71 227 2.0 5.0 0.00 0.00 0.00 81 1011.3
20260904014502 71 265 3.0 6.0 0.00 0.00 0.00 81 1011.3
20260904014210 71 265 3.0 6.0 0.00 0.00 0.00 81 1011.3
20260904013925 71 223 3.0 9.0 0.00 0.00 0.00 81 1011.4
20260904013712 71 223 3.0 9.0 0.00 0.00 0.00 81 1011.4
20260904013206 71 261 4.0 9.0 0.00 0.00 0.00 81 1011.4
20260904012707 72 0 3.0 9.0 0.00 0.00 0.00 81 1011.4
20260904012211 72 0 3.0 6.0 0.00 0.00 0.00 81 1011.4
20260904011715 72 271 3.0 9.0 0.00 0.00 0.00 80 1011.3
20260904011206 72 0 4.0 9.0 0.00 0.00 0.00 80 1011.5
20260904010710 72 0 4.0 9.0 0.00 0.00 0.00 79 1011.5
20260904010630 73 0 4.0 9.0 0.00 0.00 0.00 78 1011.5
20260904005705 73 193 4.0 10.0 0.00 0.00 0.00 77 1011.5
20260904005449 74 282 5.0 11.0 0.00 0.00 0.00 74 1011.5
20260904005358 74 0 4.0 11.0 0.00 0.00 0.00 75 1011.5
20260904005243 74 0 3.0 10.0 0.00 0.00 0.00 75 1011.4
20260904004858 74 0 3.0 8.0 0.00 0.00 0.00 75 1011.4
20260904004317 74 0 4.0 11.0 0.00 0.00 0.00 75 1011.5
20260904003246 74 191 4.0 8.0 0.00 0.00 0.00 74 1011.6
20260904002704 74 0 4.0 9.0 0.00 0.00 0.00 75 1011.6
20260904002223 75 0 4.0 9.0 0.00 0.00 0.00 75 1011.6
20260904001704 75 0 4.0 9.0 0.00 0.00 0.00 76 1011.7
20260904001235 75 228 4.0 11.0 0.00 0.00 0.00 75 1011.7
20260904000705 74 271 5.0 13.0 0.00 0.00 0.00 76 1011.7
20260904000642 75 0 4.0 9.0 0.00 0.00 0.00 75 1011.8
20260904000321 75 0 4.0 13.0 0.00 0.00 0.00 75 1011.8
20260903235205 75 0 4.0 9.0 0.00 0.00 0.00 76 1011.8
20260903234919 75 0 4.0 10.0 0.00 0.00 0.00 76 1011.9
20260903234706 75 0 4.0 10.0 0.00 0.00 0.00 76 1011.9
20260903234216 75 269 4.0 10.0 0.00 0.00 0.00 76 1011.9
20260903233703 75 267 4.0 10.0 0.00 0.00 0.00 74 1011.8
20260903233201 75 216 4.0 11.0 0.00 0.00 0.00 74 1012.0
20260903232705 75 344 5.0 11.0 0.00 0.00 0.00 75 1012.0
20260903232321 76 0 4.0 10.0 0.00 0.00 0.00 75 1012.2
20260903232242 75 0 5.0 10.0 0.00 0.00 0.00 75 1012.0
20260903231859 76 0 4.0 10.0 0.00 0.00 0.00 74 1012.2
20260903230659 76 188 5.0 10.0 0.00 0.00 0.00 75 1012.1
20260903230158 76 0 5.0 10.0 0.00 0.00 0.00 75 1012.1
20260903225701 76 0 4.0 11.0 0.00 0.00 0.00 75 1012.1
20260903225201 76 0 4.0 11.0 0.00 0.00 0.00 74 1012.2
20260903224704 76 0 5.0 15.0 0.00 0.00 0.00 75 1012.2
20260903224307 76 186 5.0 12.0 0.00 0.00 0.00 75 1012.5
20260903224218 76 0 6.0 15.0 0.00 0.00 0.00 75 1012.4
20260903223840 76 211 6.0 14.0 0.00 0.00 0.00 74 1012.5
20260903223256 76 189 5.0 14.0 0.00 0.00 0.00 74 1012.5
20260903222202 76 269 5.0 13.0 0.00 0.00 0.00 74 1012.6
20260903221659 76 194 5.0 13.0 0.00 0.00 0.00 75 1012.7
20260903221200 76 0 6.0 13.0 0.00 0.00 0.00 74 1012.7
20260903221036 77 195 4.0 12.0 0.00 0.00 0.00 73 1012.8
20260903221031 77 0 5.0 14.0 0.00 0.00 0.00 73 1012.8
20260903220737 76 0 6.0 13.0 0.00 0.00 0.00 73 1012.7